FW8306 Weather Reports


time (UTC)temp
F
wind
direction
speed
knots
gust
knots
rain 1hr
in
rain 24hr
in
rain mn
in
humidity
%
barometer
mb
20260504044557 55 0.0 0.0 0.00 0.50 0.19 97 1007.5
20260504043057 54 0.0 0.0 0.00 0.50 0.19 97 1007.5
20260504041556 54 0.0 0.0 0.00 0.50 0.19 97 1007.5
20260504040055 54 0.0 0.0 0.00 0.50 0.19 97 1007.3
20260504034556 54 0.0 0.0 0.00 0.50 0.19 97 1007.5
20260504033049 54 0.0 0.0 0.00 0.50 0.19 97 1007.6
20260504031548 54 0.0 0.0 0.00 0.50 0.19 97 1007.6
20260504030051 55 0.0 0.0 0.00 0.50 0.19 97 1007.6
20260504024552 55 0.0 0.0 0.00 0.50 0.19 97 1007.5
20260504023049 55 0.0 0.0 0.00 0.50 0.19 97 1007.6
20260504021552 54 0.0 0.0 0.00 0.50 0.19 97 1007.6
20260504020058 54 0.0 0.0 0.00 0.50 0.19 97 1007.4
20260504014548 54 0.0 0.0 0.00 0.50 0.19 97 1007.6
20260504013111 54 0.0 0.0 0.04 0.50 0.19 97 1007.5
20260504011552 54 0.0 0.0 0.05 0.50 0.19 97 1007.6
20260504010055 54 0.0 0.0 0.05 0.50 0.19 97 1007.4
20260504004550 54 0.0 0.0 0.05 0.50 0.19 97 1007.4
20260504003051 54 0.0 0.0 0.00 0.45 0.14 97 1007.5
20260504001555 54 0.0 0.0 0.00 0.44 0.14 97 1007.2
20260504000106 54 0.0 0.0 0.03 0.44 0.14 97 1007.2
20260503234549 54 0.0 0.0 0.05 0.44 0.14 97 1007.5
20260503233052 54 0.0 0.0 0.06 0.44 0.14 97 1007.8
20260503231556 54 0.0 0.0 0.11 0.44 0.14 97 1007.9
20260503230052 54 0.0 0.0 0.10 0.41 0.11 97 1008.3
20260503224558 54 0.0 0.0 0.14 0.39 0.08 96 1008.1
20260503223054 54 0.0 0.0 0.25 0.38 0.07 96 1008.4
20260503221604 54 0.0 0.0 0.21 0.33 0.03 96 1008.7
20260503220055 55 0.0 0.0 0.24 0.31 0.00 95 1009.1
20260503214551 55 0.0 0.0 0.18 0.25 0.25 94 1009.6
20260503213054 55 0.0 0.0 0.07 0.13 0.13 93 1009.2
20260503211556 55 0.0 0.0 0.07 0.11 0.11 92 1008.9
20260503210050 55 0.0 0.0 0.03 0.07 0.07 91 1009.3
20260503204614 55 0.0 0.0 0.03 0.06 0.06 91 1008.9
20260503203100 55 0.0 0.0 0.03 0.06 0.06 90 1009.0
20260503201552 56 0.0 0.0 0.01 0.03 0.03 87 1010.0
20260503200056 56 0.0 0.0 0.00 0.03 0.03 85 1009.7
20260503194555 56 0.0 0.0 0.00 0.02 0.02 85 1009.6
20260503193059 56 0.0 0.0 0.00 0.02 0.02 85 1009.5
20260503191610 56 0.0 0.0 0.00 0.02 0.02 85 1009.4
20260503190051 56 0.0 0.0 0.00 0.02 0.02 84 1009.4
20260503184553 56 0.0 0.0 0.00 0.02 0.02 83 1009.7
20260503183055 57 0.0 0.0 0.00 0.02 0.02 83 1009.4
20260503181554 57 0.0 0.0 0.00 0.02 0.02 83 1009.4
20260503180059 57 0.0 0.0 0.00 0.02 0.02 82 1009.7
20260503174556 58 0.0 0.0 0.00 0.02 0.02 81 1009.8
20260503173104 58 0.0 0.0 0.00 0.02 0.02 80 1010.0
20260503171556 60 0.0 0.0 0.00 0.02 0.02 78 1009.9
20260503170106 60 0.0 0.0 0.00 0.02 0.02 78 1010.3
20260503160106 63 0.0 0.0 0.00 0.02 0.02 72 1010.5
20260503100104 63 0.0 0.0 0.00 0.00 0.00 71 1013.1
20260503081553 57 0.0 0.0 0.00 0.00 0.00 81 1013.6